This is the latest recevied weather packets stored in our database for station/object K6MBY. If no packets are shown the sender has not sent any weather packets the latest 10 day(s).
| Time | Temp. | Humidity | Pressure | Rain* | Wind** | Luminosity | Snow |
|---|---|---|---|---|---|---|---|
| 1777786717 | 13.89° C | 73% | 1018.1 hPa | 0 mm | - | 0 W/m² | - |
| 1777786415 | 14.44° C | 72% | 1018 hPa | 0 mm | - | 0 W/m² | - |
| 1777786111 | 14.44° C | 72% | 1018 hPa | 0 mm | - | 0 W/m² | - |
| 1777785808 | 14.44° C | 71% | 1018.2 hPa | 0 mm | - | 0 W/m² | - |
| 1777785504 | 14.44° C | 71% | 1018.3 hPa | 0 mm | - | 0 W/m² | - |
| 1777785201 | 14.44° C | 71% | 1018.2 hPa | 0 mm | - | 0 W/m² | - |
| 1777784898 | 15° C | 70% | 1018.2 hPa | 0 mm | - | 0 W/m² | - |
| 1777784594 | 15.56° C | 68% | 1017.9 hPa | 0 mm | - | 0 W/m² | - |
| 1777784292 | 16.11° C | 65% | 1018 hPa | 0 mm | - | 0 W/m² | - |
| 1777783990 | 17.22° C | 62% | 1018 hPa | 0 mm | - | 0 W/m² | - |
| 1777783685 | 18.89° C | 50% | 1018 hPa | 0 mm | - | 0 W/m² | - |
| 1777783382 | 19.44° C | 52% | 1018 hPa | 0 mm | - | 0 W/m² | - |
| 1777783080 | 19.44° C | 52% | 1017.8 hPa | 0 mm | - | 0 W/m² | - |
| 1777782777 | 19.44° C | 52% | 1017.9 hPa | 0 mm | - | 0 W/m² | - |
| 1777782472 | 19.44° C | 51% | 1017.9 hPa | 0 mm | - | 0 W/m² | - |
| 1777782169 | 19.44° C | 50% | 1017.8 hPa | 0 mm | - | 0 W/m² | - |
| 1777781865 | 20° C | 49% | 1017.7 hPa | 0 mm | - | 0 W/m² | - |
| 1777781558 | 20° C | 49% | 1017.8 hPa | 0 mm | - | 0 W/m² | - |
| 1777781255 | 20° C | 49% | 1017.7 hPa | 0 mm | - | 0 W/m² | - |
| 1777780953 | 20° C | 49% | 1017.8 hPa | 0 mm | - | 0 W/m² | - |
| 1777780649 | 20° C | 49% | 1017.6 hPa | 0 mm | - | 0 W/m² | - |
| 1777780347 | 20° C | 50% | 1017.7 hPa | 0 mm | - | 0 W/m² | - |
| 1777780044 | 20° C | 56% | 1017.5 hPa | 0 mm | - | 0 W/m² | - |
| 1777779741 | 20.56° C | 49% | 1017.4 hPa | 0 mm | - | 1 W/m² | - |
| 1777779438 | 20.56° C | 49% | 1017.3 hPa | 0 mm | - | 1 W/m² | - |
* Rain latest hour (hover to see other rain measurements)
** Current wind speed in m/s (hover to see current wind gust speed)